#timestamp,LO_Frequency,Hit,Temp,Hum 
1479711615.2,286046967.9,N,0.0,0.0
1479711635.1,286046968.9,N,0.0,0.0
1479711636.0,286046968.9,N,0.0,0.0
1479711655.8,286046967.7,N,0.0,0.0
1479711675.6,286046967.9,N,0.0,0.0
1479711695.5,286046968.0,N,0.0,0.0
1479711715.3,286046968.1,N,0.0,0.0
1479711735.1,286046968.1,N,0.0,0.0
1479711755.9,286046968.3,N,0.0,0.0
1479711775.7,286046970.7,N,0.0,0.0
1479711795.6,286046970.8,N,0.0,0.0
1479711815.4,286046970.3,N,0.0,0.0
1479711835.2,286046968.0,N,0.0,0.0
1479711855.1,286046967.7,N,0.0,0.0
1479711856.0,286046967.7,N,0.0,0.0
1479711875.8,286046970.2,N,0.0,0.0
1479711895.6,286046972.2,N,0.0,0.0
1479711915.5,286046969.8,N,0.0,0.0
1479711935.3,286046969.3,N,0.0,0.0
1479711955.2,286046970.2,N,0.0,0.0
1479711975.9,286046971.8,N,0.0,0.0
1479711995.7,286046969.8,N,0.0,0.0
1479712015.6,286046969.4,N,0.0,0.0
1479712035.4,286046971.2,N,0.0,0.0
1479712055.2,286046971.1,N,0.0,0.0
1479712075.1,286046971.5,N,0.0,0.0
1479712076.0,286046971.5,N,0.0,0.0
1479712095.8,286046973.3,N,0.0,0.0
1479712115.7,286046973.1,N,0.0,0.0
1479712135.5,286046972.8,N,0.0,0.0
1479712155.3,286046973.7,N,0.0,0.0
1479712175.2,286046972.8,N,0.0,0.0
1479712195.0,286046973.6,N,0.0,0.0
1479712195.9,286046973.6,N,0.0,0.0
1479712215.8,286046974.7,N,0.0,0.0
1479712235.6,286046974.7,N,0.0,0.0
1479712255.4,286046975.4,N,0.0,0.0
1479712275.3,286046973.2,N,0.0,0.0
1479712295.1,286046975.1,N,0.0,0.0
1479712315.8,286046974.6,N,0.0,0.0
1479712335.7,286046976.9,N,0.0,0.0
1479712355.5,286046977.2,N,0.0,0.0
1479712375.4,286046975.7,N,0.0,0.0
1479712395.2,286046976.0,N,0.0,0.0
1479712415.0,286046976.1,N,0.0,0.0
1479712415.9,286046976.1,N,0.0,0.0
1479712435.8,286046975.7,N,0.0,0.0
1479712455.6,286046977.7,N,0.0,0.0
1479712475.5,286046978.1,N,0.0,0.0
1479712495.3,286046978.3,N,0.0,0.0
1479712515.1,286046976.1,N,0.0,0.0
1479712535.9,286046978.3,N,0.0,0.0
1479712555.7,286046975.8,N,0.0,0.0
1479712575.5,286046978.3,N,0.0,0.0
1479712595.4,286046978.0,N,0.0,0.0
1479712615.2,286046979.4,N,0.0,0.0
1479712635.1,286046979.0,N,0.0,0.0
1479712636.0,286046979.0,N,0.0,0.0
1479712655.8,286046979.4,N,0.0,0.0
1479712675.6,286046981.4,N,0.0,0.0
1479712695.5,286046983.3,N,0.0,0.0
1479712715.3,286046983.0,N,0.0,0.0
1479712735.1,286046984.8,N,0.0,0.0
1479712755.9,286046986.4,N,0.0,0.0
1479712775.7,286046986.6,N,0.0,0.0
1479712795.6,286046984.2,N,0.0,0.0
1479712815.4,286046986.0,N,0.0,0.0
1479712835.2,286046986.3,N,0.0,0.0
1479712855.1,286046984.1,N,0.0,0.0
1479712856.0,286046984.1,N,0.0,0.0
1479712875.8,286046984.8,N,0.0,0.0
1479712895.7,286046986.6,N,0.0,0.0
1479712915.5,286046986.2,N,0.0,0.0
1479712935.3,286046986.4,N,0.0,0.0
1479712955.2,286046984.0,N,0.0,0.0
1479712975.0,286046984.5,N,0.0,0.0
1479712975.9,286046984.5,N,0.0,0.0
1479712995.7,286046985.0,N,0.0,0.0
1479713015.6,286046983.7,N,0.0,0.0
1479713035.4,286046984.7,N,0.0,0.0
1479713055.3,286046984.8,N,0.0,0.0
1479713075.1,286046985.0,N,0.0,0.0
1479713095.8,286046983.9,N,0.0,0.0
1479713115.7,286046986.6,N,0.0,0.0
1479713135.5,286046988.2,N,0.0,0.0
1479713155.4,286046987.8,N,0.0,0.0
1479713175.2,286046989.6,N,0.0,0.0
1479713195.0,286046987.2,N,0.0,0.0
1479713195.9,286046987.2,N,0.0,0.0
1479713215.8,286046987.2,N,0.0,0.0
1479713235.6,286046988.3,N,0.0,0.0
1479713255.4,286046987.4,N,0.0,0.0
1479713275.3,286046986.9,N,0.0,0.0
1479713295.1,286046988.1,N,0.0,0.0
1479713315.9,286046987.8,N,0.0,0.0
1479713335.7,286046987.4,N,0.0,0.0
1479713355.5,286046988.2,N,0.0,0.0
1479713375.4,286046987.3,N,0.0,0.0
1479713395.2,286046987.4,N,0.0,0.0
1479713415.0,286046989.8,N,0.0,0.0
1479713415.9,286046989.8,N,0.0,0.0
1479713435.8,286046989.4,N,0.0,0.0
1479713455.6,286046991.6,N,0.0,0.0
1479713475.5,286046989.1,N,0.0,0.0
1479713495.3,286046991.1,N,0.0,0.0
1479713515.1,286046989.4,N,0.0,0.0
1479713535.9,286046989.5,N,0.0,0.0
1479713555.7,286046989.3,N,0.0,0.0
1479713575.6,286046989.4,N,0.0,0.0
1479713595.4,286046987.0,N,0.0,0.0
1479713615.2,286046987.9,N,0.0,0.0
1479713635.1,286046988.0,N,0.0,0.0
1479713636.0,286046988.0,N,0.0,0.0
1479713655.8,286046988.3,N,0.0,0.0
1479713675.6,286046985.6,N,0.0,0.0
1479713695.5,286046984.0,N,0.0,0.0
1479713715.3,286046984.8,N,0.0,0.0
1479713735.2,286046985.0,N,0.0,0.0
1479713755.9,286046984.8,N,0.0,0.0
1479713775.7,286046982.2,N,0.0,0.0
1479713795.6,286046983.6,N,0.0,0.0
1479713815.4,286046981.3,N,0.0,0.0
1479713835.2,286046977.4,N,0.0,0.0
1479713855.1,286046979.7,N,0.0,0.0
1479713856.0,286046979.7,N,0.0,0.0
1479713875.8,286046980.2,N,0.0,0.0
1479713895.7,286046978.1,N,0.0,0.0
1479713915.5,286046976.1,N,0.0,0.0
1479713935.3,286046976.7,N,0.0,0.0
1479713955.2,286046974.5,N,0.0,0.0
1479713975.0,286046976.4,N,0.0,0.0
1479713975.9,286046976.4,N,0.0,0.0
1479713995.8,286046974.2,N,0.0,0.0
1479714015.6,286046974.4,N,0.0,0.0
1479714035.4,286046975.5,N,0.0,0.0
1479714055.3,286046973.1,N,0.0,0.0
1479714075.1,286046973.4,N,0.0,0.0
1479714095.8,286046971.3,N,0.0,0.0
1479714115.7,286046971.6,N,0.0,0.0
1479714135.5,286046972.2,N,0.0,0.0
1479714155.4,286046970.1,N,0.0,0.0
1479714175.2,286046970.2,N,0.0,0.0
1479714195.0,286046972.3,N,0.0,0.0
1479714195.9,286046972.3,N,0.0,0.0
1479714215.8,286046969.8,N,0.0,0.0
1479714235.6,286046969.4,N,0.0,0.0
1479714255.4,286046969.6,N,0.0,0.0
1479714275.3,286046967.7,N,0.0,0.0
1479714295.1,286046970.3,N,0.0,0.0
1479714315.9,286046968.5,N,0.0,0.0
1479714335.7,286046968.2,N,0.0,0.0
1479714355.5,286046968.5,N,0.0,0.0
1479714375.4,286046968.2,N,0.0,0.0
1479714395.2,286046969.2,N,0.0,0.0
1479714415.0,286046969.1,N,0.0,0.0
1479714415.9,286046969.1,N,0.0,0.0
1479714435.8,286046966.7,N,0.0,0.0
1479714455.6,286046966.6,N,0.0,0.0
1479714475.5,286046966.1,N,0.0,0.0
1479714495.3,286046966.5,N,0.0,0.0
1479714515.1,286046966.3,N,0.0,0.0
1479714535.9,286046969.2,N,0.0,0.0
1479714555.7,286046966.6,N,0.0,0.0
1479714575.6,286046966.3,N,0.0,0.0
1479714595.4,286046966.9,N,0.0,0.0
1479714615.2,286046967.3,N,0.0,0.0
1479714635.1,286046964.7,N,0.0,0.0
1479714636.0,286046964.7,N,0.0,0.0
1479714655.8,286046964.8,N,0.0,0.0
1479714675.6,286046965.7,N,0.0,0.0
1479714695.5,286046965.0,N,0.0,0.0
1479714715.3,286046965.6,N,0.0,0.0
1479714735.2,286046963.3,N,0.0,0.0
1479714755.9,286046963.2,N,0.0,0.0
1479714775.7,286046963.9,N,0.0,0.0
1479714795.6,286046962.1,N,0.0,0.0
1479714815.4,286046962.3,N,0.0,0.0
1479714835.2,286046961.6,N,0.0,0.0
1479714855.1,286046961.8,N,0.0,0.0
1479714856.0,286046961.8,N,0.0,0.0
1479714875.8,286046962.2,N,0.0,0.0
1479714895.7,286046960.1,N,0.0,0.0
1479714915.5,286046960.6,N,0.0,0.0
1479714935.3,286046959.9,N,0.0,0.0
1479714955.2,286046960.6,N,0.0,0.0
1479714975.0,286046961.0,N,0.0,0.0
1479714975.9,286046961.0,N,0.0,0.0
1479714995.8,286046960.3,N,0.0,0.0
1479715015.6,286046961.0,N,0.0,0.0
1479715035.4,286046958.4,N,0.0,0.0
1479715055.3,286046959.1,N,0.0,0.0
1479715075.1,286046956.5,N,0.0,0.0
1479715095.8,286046959.0,N,0.0,0.0
1479715115.7,286046959.6,N,0.0,0.0
1479715135.5,286046959.1,N,0.0,0.0
1479715155.4,286046956.8,N,0.0,0.0
1479715175.2,286046956.7,N,0.0,0.0
1479715195.0,286046957.3,N,0.0,0.0
1479715195.9,286046957.3,N,0.0,0.0
